DW4221 Weather Reports


time (UTC)temp
C
wind
direction
speed
KPH
gust
KPH
rain 1hr
cm
rain 24hr
cm
rain mn
cm
humidity
%
barometer
mb
20260505230058 2 248 3.2 17.7 0.00 0.00 0.00 60 1010.0
20260505224554 2 290 3.2 14.5 0.00 0.00 0.00 58 1010.1
20260505223104 3 319 3.2 12.9 0.00 0.00 0.00 56 1009.8
20260505221549 3 306 4.8 20.9 0.00 0.00 0.00 56 1009.6
20260505220054 3 302 6.4 16.1 0.00 0.00 0.00 58 1009.5
20260505214602 3 272 4.8 19.3 0.00 0.00 0.00 58 1009.5
20260505213057 3 236 1.6 14.5 0.00 0.00 0.00 57 1009.3
20260505211617 3 281 3.2 19.3 0.00 0.00 0.00 58 1009.6
20260505210055 3 233 4.8 14.5 0.00 0.00 0.00 57 1009.4
20260505204556 3 267 6.4 25.7 0.00 0.00 0.00 57 1009.4
20260505203114 2 43 4.8 17.7 0.00 0.00 0.00 59 1009.5
20260505201552 3 285 4.8 16.1 0.00 0.00 0.00 59 1009.4
20260505200051 2 278 6.4 19.3 0.00 0.00 0.00 59 1009.5
20260505194554 3 282 6.4 17.7 0.00 0.00 0.00 59 1009.4
20260505193059 3 308 4.8 19.3 0.00 0.00 0.00 58 1009.3
20260505191556 2 291 3.2 14.5 0.00 0.00 0.00 58 1009.2
20260505190056 3 281 3.2 17.7 0.00 0.00 0.00 59 1009.0
20260505184554 2 302 4.8 19.3 0.00 0.00 0.00 57 1008.8
20260505183054 2 5 3.2 19.3 0.00 0.00 0.00 58 1008.9
20260505181552 2 307 3.2 14.5 0.00 0.00 0.00 58 1008.9
20260505180056 1 0 1.6 17.7 0.00 0.00 0.00 60 1008.9
20260505174556 1 295 3.2 22.5 0.00 0.00 0.00 62 1008.8
20260505173052 1 299 3.2 17.7 0.00 0.00 0.00 60 1008.7
20260505171556 1 14 1.6 12.9 0.00 0.00 0.00 64 1008.6
20260505170055 0 267 1.6 17.7 0.00 0.00 0.00 66 1008.8
20260505164556 0 26 3.2 24.1 0.00 0.00 0.00 64 1008.6
20260505163052 0 328 11.3 22.5 0.00 0.00 0.00 66 1008.4
20260505161548 0 317 3.2 12.9 0.00 0.00 0.00 74 1008.2
20260505153057 -1 286 3.2 16.1 0.00 0.00 0.00 75 1007.9
20260505151553 -1 300 1.6 16.1 0.00 0.00 0.00 76 1007.7
20260505140109 -2 257 4.8 14.5 0.00 0.00 0.00 76 1007.0
20260505124554 -2 251 4.8 20.9 0.00 0.00 0.00 72 1006.2
20260505123059 -2 226 3.2 16.1 0.00 0.00 0.00 73 1006.0
20260505121552 -1 31 3.2 11.3 0.00 0.00 0.00 73 1006.0
20260505120107 -1 302 4.8 14.5 0.00 0.00 0.00 72 1005.8
20260505114557 -1 332 3.2 19.3 0.00 0.10 0.00 74 1005.4
20260505113104 -2 265 1.6 9.7 0.00 0.10 0.00 75 1005.3
20260505111552 -1 140 0.0 16.1 0.00 0.10 0.00 77 1005.3
20260505101554 -1 298 6.4 16.1 0.00 0.15 0.00 75 1005.0
20260505100052 -1 283 1.6 17.7 0.00 0.15 0.00 76 1004.9
20260505094601 -1 12 3.2 14.5 0.00 0.15 0.00 77 1004.7
20260505093055 -1 293 4.8 17.7 0.00 0.15 0.00 78 1004.9
20260505091550 -1 271 3.2 16.1 0.00 0.15 0.00 79 1004.7
20260505090058 -1 276 3.2 17.7 0.00 0.15 0.00 81 1004.5
20260505084556 -1 281 0.0 11.3 0.00 0.15 0.00 84 1004.3
20260505083104 -1 279 1.6 12.9 0.00 0.15 0.00 84 1004.1
20260505081554 -1 287 1.6 12.9 0.00 0.15 0.00 85 1004.0
20260505080050 -1 13 1.6 12.9 0.00 0.15 0.00 86 1003.8
20260505074555 0 0 3.2 12.9 0.00 0.15 0.00 87 1003.6
20260505073057 0 0 0.0 12.9 0.00 0.15 0.00 88 1003.5
20260505071600 0 261 0.0 12.9 0.00 0.15 0.00 87 1003.6
20260505064557 0 261 4.8 17.7 0.00 0.15 0.00 84 1003.8
20260505063054 0 297 3.2 19.3 0.00 0.15 0.00 80 1003.7
20260505061612 0 315 1.6 29.0 0.00 0.15 0.00 79 1003.5
20260505060059 0 16 3.2 19.3 0.00 0.15 0.00 79 1003.5
20260505054557 0 284 1.6 11.3 0.00 0.15 0.00 79 1003.6
20260505053052 0 234 1.6 19.3 0.00 0.15 0.00 79 1003.4
20260505051550 0 278 3.2 22.5 0.00 0.15 0.00 80 1003.5
20260505041556 1 28 3.2 14.5 0.00 0.15 0.15 82 1002.9
20260505034554 1 269 0.0 11.3 0.00 0.15 0.15 86 1002.8
20260505033100 1 0 1.6 12.9 0.00 0.15 0.15 86 1002.7
20260505031556 1 9 4.8 17.7 0.00 0.15 0.15 83 1003.0
20260505030104 1 291 4.8 14.5 0.00 0.15 0.15 80 1002.7
20260505024553 2 296 1.6 12.9 0.00 0.15 0.15 80 1002.5
20260505023051 2 292 3.2 14.5 0.00 0.15 0.15 80 1002.3
20260505021553 2 0 1.6 14.5 0.00 0.15 0.15 80 1002.2
20260505020051 2 317 3.2 16.1 0.00 0.15 0.15 81 1001.9
20260505014553 2 321 3.2 12.9 0.00 0.15 0.15 84 1001.4
20260505013051 1 188 1.6 17.7 0.00 0.15 0.15 86 1001.5
20260505011552 1 285 0.0 9.7 0.00 0.15 0.15 88 1001.5
20260505010059 1 258 1.6 11.3 0.00 0.15 0.15 87 1001.3
20260505004552 3 264 3.2 22.5 0.00 0.15 0.15 79 1001.4
20260505003051 4 19 3.2 17.7 0.00 0.15 0.15 68 1000.9
20260505001550 4 282 1.6 19.3 0.00 0.15 0.15 68 1001.0
20260505000100 5 281 6.4 24.1 0.00 0.15 0.15 65 1000.8
20260504234602 5 230 4.8 17.7 0.00 0.15 0.15 61 1000.4
20260504233051 5 269 9.7 24.1 0.00 0.15 0.15 61 1000.3
20260504231550 5 250 3.2 19.3 0.00 0.15 0.15 62 1000.2